096  
ASUS41 KCTP 202110  
RWRCTP  
 
REGIONAL WEATHER ROUNDUP  
NATIONAL WEATHER SERVICE STATE COLLEGE PA  
400 PM EST SUN JAN 20 2019  
 
NOTE: "FAIR" INDICATES FEW OR NO CLOUDS BELOW 12,000 FEET WITH NO  
SIGNIFICANT WEATHER AND/OR S TO VISIBILITY
.  
 
* = STATION THAT DOES NOT REPORT PRECIPITATION /E.G. RAIN...SNOW...ETC/  
THUNDER OR FOG.
 
 
PAZ002>004-007>009-013>016-020>023-029>032-202200-  
WESTERN PENNSYLVANIA  
 
CITY SKY/WX TMP DP RH WIND PRES REMARKS
 
ERIE PTSUNNY 11 1 64 NW15G23 30.01R WCI -5  
MEADVILLE LGT SNOW 7 0 73 NW13G24 29.94R WCI -9  
FRANKLIN* LGT SNOW 8 0 69 NW13G24 29.91R WCI -8  
NEW CASTLE NOT AVBL  
BEAVER COUNTY NOT AVBL  
BUTLER* FLURRIES 14 -2 49 NW15G23 29.93R WCI -1  
PITTSBURGH INT FAIR 13 -1 54 NW22G29 29.95R WCI -6  
PITTSBURGH FAIR 16 -2 45 NW16G35 29.91R WCI 1  
INDIANA* PTSUNNY 14 5 67 NW17G28 29.89R WCI -3  
LATROBE MOSUNNY 18 1 49 NW17 29.91R WCI 2  
WASHINGTON CO* PTSUNNY 16 4 59 NW15G22 29.99R WCI 1  

 
 
PAZ004>006-010>012-017>019-024>028-033>037-041-042-045-046-049>053-202200-  
CENTRAL PENNSYLVANIA  
 
CITY SKY/WX TMP DP RH WIND PRES REMARKS
 
BRADFORD LGT SNOW 6 0 76 NW20 29.74R WCI -14  
DUBOIS LGT SNOW 10 3 73 NW14G22 29.78R WCI -6  
CLEARFIELD LGT SNOW 13 5 70 NW18G29 29.78R VSB 3/4 WCI -4  
JOHNSTOWN FAIR 11 2 67 W28G38 29.72R WCI -10  
ALTOONA FLURRIES 17 6 62 NW26G35 29.74R WCI -2  
STATE COLLEGE CLOUDY 16 7 67 NW18G31 29.74R WCI -1  
WILLIAMSPORT CLOUDY 20 8 60 NW13 29.71R WCI 7  
SELINSGROVE CLOUDY 22 10 60 NW10G23 29.72R WCI 11  
FT INDIANTOWN MIX PCPN 25 10 54 NW16G31 29.65R WCI 12  
CAPITAL CITY FAIR 27 12 53 NW18G31 29.69R WCI 14  
HARRISBURG PTSUNNY 25 12 58 NW26G37 29.69R WCI 9  
YORK FAIR 26 14 60 NW21G33 29.67R WCI 12  

 
 
PAZ038>040-043-044-047-048-054-055-060>062-067>071-202200-  
EASTERN PENNSYLVANIA  
 
CITY SKY/WX TMP DP RH WIND PRES REMARKS
 
SCRANTON MIX PCPN 13 4 67 NW23G35 29.63R WCI -6  
MOUNT POCONO LGT SNOW 8 4 83 NW30G47 29.44R FOG WCI -15  
ALLENTOWN MOCLDY 25 12 58 NW15 29.59R WCI 13  
QUAKERTOWN* PTCLDY 25 12 58 W16G25 29.56R WCI 12  
READING FAIR 24 13 62 NW31G38 29.62R WCI 7  
LANCASTER FAIR 28 14 55 NW28G37 29.63R WCI 13  
COATESVILLE FAIR 27 16 63 NW21 29.59R WCI 13  
POTTSTOWN FAIR 24 12 60 NW15G23 29.60R WCI 11  
BLUE BELL FAIR 27 16 63 NW10G23 29.58R  
DOYLESTOWN FAIR 27 13 55 NW16G26 29.53R WCI 15  
WILLOW GROVE NOT AVBL  
NORTH PHILA FAIR 31 14 49 NW22G32 29.56R  
PHILADELPHIA FAIR 29 13 51 NW23G31 29.58R  

 
 
 
CLICK HERE TO GO TO PREVIOUS BULLETINS.

The Nexlab PA Page Main Text Page